FW0816 Weather Reports


time (UTC)temp
C
wind
direction
speed
KPH
gust
KPH
rain 1hr
cm
rain 24hr
cm
rain mn
cm
humidity
%
barometer
mb
20260508043005 5 17 8.0 17.7 0.00 1.32 0.00 97 1003.3
20260508041511 5 22 8.0 12.9 0.00 1.32 0.00 97 1003.0
20260508040005 5 26 8.0 12.9 0.00 1.32 0.00 97 1003.2
20260508034502 5 39 12.9 17.7 0.00 1.32 0.00 96 1003.0
20260508033100 5 352 19.3 29.0 0.00 1.32 0.00 96 1003.2
20260508031601 6 333 20.9 30.6 0.00 1.32 0.00 94 1003.0
20260508030059 9 22 0.0 9.7 0.00 1.32 0.00 96 1002.3
20260508024603 9 353 1.6 9.7 0.00 1.32 1.32 96 1002.6
20260508023051 9 352 4.8 12.9 0.00 1.32 1.32 96 1002.5
20260508021551 9 32 6.4 9.7 0.00 1.32 1.32 96 1002.8
20260508014552 9 31 4.8 9.7 0.00 1.32 1.32 96 1002.9
20260508013049 9 38 3.2 11.3 0.00 1.32 1.32 96 1002.8
20260508011552 8 348 4.8 8.0 0.00 1.32 1.32 96 1002.6
20260508010051 8 348 1.6 4.8 0.00 1.32 1.32 96 1003.0
20260508004549 8 348 1.6 9.7 0.00 1.32 1.32 95 1003.1
20260508003049 8 349 3.2 11.3 0.00 1.32 1.32 94 1003.0
20260508001547 9 344 6.4 12.9 0.00 1.32 1.32 93 1003.1
20260508000045 10 41 3.2 8.0 0.00 1.32 1.32 95 1002.7
20260507234546 9 43 1.6 6.4 0.00 1.32 1.32 94 1002.6
20260507233045 8 41 12.9 29.0 0.00 1.32 1.32 94 1002.3
20260507231546 8 335 16.1 33.8 0.00 1.32 1.32 87 1001.9
20260507230043 13 187 8.0 16.1 0.00 1.32 1.32 91 1001.5
20260507224540 13 157 14.5 22.5 0.00 1.32 1.32 91 1001.4
20260507223039 13 157 16.1 24.1 0.00 1.32 1.32 91 1001.4
20260507221538 13 180 16.1 32.2 0.00 1.32 1.32 91 1001.5
20260507220036 13 166 14.5 32.2 0.00 1.32 1.32 92 1001.3
20260507214638 13 194 29.0 41.8 0.00 1.32 1.32 91 1001.3
20260507213036 13 159 17.7 37.0 0.03 1.32 1.32 92 1001.3
20260507211540 12 209 24.1 35.4 0.10 1.32 1.32 95 1001.3
20260507210037 12 134 32.2 40.2 0.23 1.32 1.32 95 1001.3
20260507204635 12 170 27.4 57.9 0.36 1.32 1.32 94 1001.2
20260507203036 12 141 37.0 46.7 0.38 1.30 1.30 94 1000.8
20260507201532 12 162 19.3 35.4 0.41 1.22 1.22 93 1001.7
20260507200026 13 149 30.6 48.3 0.36 1.07 1.07 93 1002.0
20260507194529 13 139 24.1 38.6 0.38 0.97 0.97 93 1003.3
20260507193032 13 147 30.6 49.9 0.53 0.91 0.91 92 1003.3
20260507191524 13 159 29.0 46.7 0.71 0.81 0.81 92 1003.5
20260507190023 13 153 20.9 45.1 0.71 0.71 0.71 93 1003.6
20260507184523 14 178 29.0 53.1 0.58 0.58 0.58 93 1003.6
20260507183039 13 151 32.2 45.1 0.38 0.38 0.38 93 1003.8
20260507181521 13 138 20.9 37.0 0.08 0.08 0.08 91 1004.1
20260507180020 14 149 24.1 43.5 0.00 0.00 0.00 88 1003.9
20260507174519 14 136 32.2 56.3 0.00 0.00 0.00 89 1002.9
20260507173018 14 138 43.5 59.5 0.00 0.00 0.00 84 1002.9
20260507171517 15 151 37.0 64.4 0.00 0.00 0.00 84 1003.0
20260507170019 15 146 43.5 67.6 0.00 0.00 0.00 83 1002.9
20260507164515 15 127 48.3 66.0 0.00 0.00 0.00 84 1003.2
20260507163015 16 145 54.7 69.2 0.00 0.00 0.00 80 1003.4
20260507161514 16 147 49.9 67.6 0.00 0.00 0.00 80 1003.7
20260507160032 16 145 54.7 77.2 0.00 0.00 0.00 79 1003.6
20260507154513 17 137 53.1 72.4 0.00 0.00 0.00 78 1004.1
20260507153009 17 149 46.7 75.6 0.00 0.00 0.00 78 1004.7
20260507151508 17 157 53.1 80.5 0.00 0.00 0.00 79 1004.9
20260507150007 17 144 41.8 67.6 0.00 0.00 0.00 79 1004.9
20260507144504 17 159 46.7 74.0 0.00 0.00 0.00 80 1005.4
20260507143006 16 162 43.5 82.1 0.00 0.00 0.00 81 1005.8
20260507141506 17 161 45.1 80.5 0.00 0.00 0.00 80 1005.6
20260507140002 17 155 43.5 82.1 0.00 0.00 0.00 79 1005.8
20260507134600 17 156 54.7 90.1 0.00 0.00 0.00 80 1005.9
20260507133111 16 151 46.7 80.5 0.00 0.00 0.00 81 1006.0
20260507131557 16 147 49.9 74.0 0.00 0.00 0.00 81 1005.9
20260507130108 16 143 49.9 80.5 0.00 0.00 0.00 82 1006.3
20260507124632 16 150 49.9 64.4 0.00 0.00 0.00 84 1006.3
20260507123052 15 159 45.1 72.4 0.00 0.00 0.00 85 1006.7
20260507121551 15 139 51.5 77.2 0.00 0.00 0.00 85 1007.2
20260507120049 14 148 38.6 59.5 0.00 0.00 0.00 89 1008.0
20260507114605 12 140 43.5 54.7 0.00 0.00 0.00 87 1008.4
20260507113044 12 157 29.0 46.7 0.00 0.00 0.00 92 1008.7
20260507111543 11 144 19.3 41.8 0.00 0.00 0.00 92 1009.8
20260507110045 13 148 32.2 41.8 0.00 0.00 0.00 89 1009.2
20260507104547 12 141 32.2 41.8 0.00 0.00 0.00 93 1009.4
20260507103036 11 138 32.2 45.1 0.00 0.00 0.00 92 1010.2
20260507101533 12 142 40.2 54.7 0.00 0.00 0.00 92 1009.9
20260507100030 12 134 40.2 62.8 0.00 0.00 0.00 90 1009.8
20260507094526 13 139 43.5 56.3 0.00 0.00 0.00 89 1010.2
20260507093034 13 155 35.4 54.7 0.00 0.00 0.00 91 1010.6
20260507091536 13 152 27.4 45.1 0.00 0.00 0.00 91 1010.7
20260507090023 13 140 27.4 43.5 0.00 0.00 0.00 91 1010.6
20260507084524 13 144 20.9 43.5 0.00 0.00 0.00 90 1010.3
20260507083017 12 167 22.5 33.8 0.00 0.00 0.00 89 1010.7
20260507081514 13 163 16.1 33.8 0.00 0.00 0.00 86 1011.1
20260507080012 13 162 20.9 40.2 0.00 0.00 0.00 84 1011.1
20260507074509 14 172 30.6 48.3 0.00 0.00 0.00 83 1011.0
20260507073006 15 151 30.6 45.1 0.00 0.00 0.00 81 1010.9
20260507071504 15 159 32.2 45.1 0.00 0.00 0.00 80 1011.5
20260507070116 15 136 24.1 45.1 0.00 0.00 0.00 79 1011.4
20260507064605 16 164 29.0 41.8 0.00 0.00 0.00 76 1012.0
20260507063100 16 164 29.0 48.3 0.00 0.00 0.00 74 1012.0
20260507061554 16 155 33.8 53.1 0.00 0.00 0.00 70 1012.3
20260507060053 16 161 38.6 67.6 0.00 0.00 0.00 69 1012.2
20260507054554 16 157 29.0 51.5 0.00 0.00 0.00 69 1012.7
20260507053050 16 152 29.0 56.3 0.00 0.00 0.00 69 1012.9
20260507051547 16 173 30.6 51.5 0.00 0.00 0.00 68 1013.3
20260507050044 17 143 27.4 43.5 0.00 0.00 0.00 61 1013.4
20260507044544 17 160 25.7 56.3 0.00 0.00 0.00 60 1013.5